When you browse on this site, cookies collect data to enhance your experience and personalize the content and advertising you see.
Visit our Privacy Policy to learn more. By continuing to use the site, you agree to this use of cookies and data.

Meteo pe oră la Dziegiele

Astăzi, 21 Septembrie, Luni

Timp Temperatura Precipitaţii Vânt Presiune Umiditate
00:00 +12°C° 0 mm 2 m/s 748 mmHg 90%
01:00 +10°C° 0 mm 2 m/s 749 mmHg 91%
02:00 +10°C° 0 mm 2 m/s 749 mmHg 91%
03:00 +10°C° 0 mm 2 m/s 748 mmHg 92%
04:00 +10°C° 0 mm 2 m/s 748 mmHg 92%
05:00 +10°C° 0 mm 2 m/s 748 mmHg 90%
06:00 +12°C° 0 mm 2 m/s 748 mmHg 88%
07:00 +13°C° 0 mm 2 m/s 748 mmHg 83%
08:00 +15°C° 0 mm 2 m/s 748 mmHg 75%
09:00 +16°C° 0 mm 2 m/s 748 mmHg 68%
10:00 +18°C° 0 mm 2 m/s 748 mmHg 61%
11:00 +19°C° 0 mm 2 m/s 748 mmHg 57%
12:00 +19°C° 0 mm 3 m/s 748 mmHg 53%
13:00 +20°C° 0 mm 3 m/s 748 mmHg 50%
14:00 +20°C° 0 mm 2 m/s 748 mmHg 53%
15:00 +20°C° 0 mm 2 m/s 747 mmHg 55%
16:00 +20°C° 0 mm 1 m/s 747 mmHg 58%
17:00 +17°C° 0 mm 2 m/s 747 mmHg 61%
18:00 +15°C° 0 mm 2 m/s 747 mmHg 64%
19:00 +13°C° 0 mm 2 m/s 746 mmHg 66%
20:00 +13°C° 0 mm 2 m/s 746 mmHg 68%
21:00 +13°C° 0 mm 2 m/s 746 mmHg 69%
22:00 +12°C° 0 mm 2 m/s 746 mmHg 71%
23:00 +12°C° 0 mm 2 m/s 746 mmHg 74%

Mâine, 22 Septembrie, Marţi

Timp Temperatura Precipitaţii Vânt Presiune Umiditate
00:00 +12°C° 0 mm 2 m/s 746 mmHg 77%
01:00 +12°C° 0 mm 2 m/s 746 mmHg 80%
02:00 +10°C° 0 mm 2 m/s 745 mmHg 81%
03:00 +10°C° 0 mm 2 m/s 745 mmHg 83%
04:00 +10°C° 0 mm 2 m/s 745 mmHg 85%
05:00 +12°C° 0 mm 2 m/s 745 mmHg 82%
06:00 +12°C° 0 mm 2 m/s 745 mmHg 79%
07:00 +13°C° 0 mm 2 m/s 745 mmHg 76%
08:00 +14°C° 0 mm 3 m/s 745 mmHg 70%
09:00 +17°C° 0 mm 3 m/s 745 mmHg 64%
10:00 +19°C° 0 mm 3 m/s 745 mmHg 59%
11:00 +20°C° 0 mm 3 m/s 745 mmHg 57%
12:00 +22°C° 0 mm 3 m/s 744 mmHg 55%
13:00 +23°C° 0 mm 4 m/s 744 mmHg 53%
14:00 +22°C° 0 mm 3 m/s 744 mmHg 56%
15:00 +22°C° 0 mm 3 m/s 744 mmHg 59%
16:00 +23°C° 0 mm 2 m/s 743 mmHg 63%
17:00 +20°C° 0 mm 3 m/s 743 mmHg 67%
18:00 +18°C° 0 mm 3 m/s 743 mmHg 71%
19:00 +17°C° 0 mm 3 m/s 742 mmHg 75%
20:00 +16°C° 0 mm 3 m/s 742 mmHg 73%
21:00 +16°C° 0 mm 3 m/s 742 mmHg 72%
22:00 +16°C° 0 mm 3 m/s 742 mmHg 70%
23:00 +14°C° 0 mm 3 m/s 742 mmHg 70%

Poimâine, 23 Septembrie, Miercuri

Timp Temperatura Precipitaţii Vânt Presiune Umiditate
00:00 +14°C° 0 mm 3 m/s 742 mmHg 70%
01:00 +14°C° 0 mm 3 m/s 742 mmHg 69%
02:00 +13°C° 0 mm 3 m/s 741 mmHg 70%
03:00 +13°C° 0 mm 3 m/s 741 mmHg 72%
04:00 +13°C° 0 mm 3 m/s 741 mmHg 73%
05:00 +13°C° 0 mm 4 m/s 741 mmHg 73%
06:00 +13°C° 0 mm 4 m/s 740 mmHg 73%
07:00 +14°C° 0 mm 4 m/s 740 mmHg 72%
08:00 +17°C° 0 mm 4 m/s 740 mmHg 68%
09:00 +19°C° 0 mm 4 m/s 740 mmHg 64%
10:00 +21°C° 0 mm 4 m/s 740 mmHg 60%
11:00 +22°C° 0 mm 4 m/s 740 mmHg 57%
12:00 +23°C° 0 mm 4 m/s 740 mmHg 55%
13:00 +25°C° 0 mm 4 m/s 739 mmHg 52%
14:00 +24°C° 0 mm 3 m/s 739 mmHg 56%
15:00 +24°C° 0 mm 3 m/s 739 mmHg 59%
16:00 +22°C° 0 mm 3 m/s 739 mmHg 63%
17:00 +21°C° 0 mm 3 m/s 739 mmHg 66%
18:00 +19°C° 0 mm 3 m/s 739 mmHg 70%
19:00 +17°C° 0 mm 3 m/s 739 mmHg 73%
20:00 +17°C° 0 mm 3 m/s 739 mmHg 73%
21:00 +17°C° 0 mm 3 m/s 738 mmHg 74%
22:00 +16°C° 0 mm 3 m/s 738 mmHg 74%
23:00 +16°C° 0 mm 3 m/s 738 mmHg 75%

24 Septembrie, Joi

Timp Temperatura Precipitaţii Vânt Presiune Umiditate
00:00 +16°C° 0 mm 3 m/s 738 mmHg 75%
01:00 +14°C° 0 mm 3 m/s 738 mmHg 76%
02:00 +14°C° 0 mm 3 m/s 738 mmHg 76%
03:00 +14°C° 0 mm 3 m/s 738 mmHg 77%
04:00 +13°C° 0 mm 3 m/s 738 mmHg 78%
05:00 +14°C° 0 mm 3 m/s 738 mmHg 76%
06:00 +14°C° 0 mm 4 m/s 738 mmHg 75%
07:00 +15°C° 0 mm 4 m/s 738 mmHg 73%
08:00 +17°C° 0 mm 4 m/s 738 mmHg 68%
09:00 +19°C° 0 mm 4 m/s 738 mmHg 64%
10:00 +21°C° 0 mm 4 m/s 738 mmHg 59%
11:00 +22°C° 0 mm 4 m/s 739 mmHg 58%
12:00 +22°C° 0 mm 4 m/s 739 mmHg 57%
13:00 +23°C° 0 mm 4 m/s 739 mmHg 56%
14:00 +23°C° 0 mm 4 m/s 738 mmHg 60%
15:00 +24°C° 0 mm 3 m/s 738 mmHg 64%
16:00 +22°C° 0 mm 3 m/s 738 mmHg 67%
17:00 +21°C° 1 mm 3 m/s 738 mmHg 74%
18:00 +19°C° 1 mm 3 m/s 738 mmHg 80%
19:00 +17°C° 1 mm 3 m/s 738 mmHg 87%
20:00 +17°C° 0.2 mm 3 m/s 738 mmHg 88%
21:00 +17°C° 0.2 mm 3 m/s 739 mmHg 89%
22:00 +17°C° 0.2 mm 3 m/s 739 mmHg 90%
23:00 +16°C° 0 mm 2 m/s 739 mmHg 90%

25 Septembrie, Vineri

Timp Temperatura Precipitaţii Vânt Presiune Umiditate
00:00 +16°C° 0 mm 2 m/s 738 mmHg 91%
01:00 +16°C° 0 mm 2 m/s 738 mmHg 92%
02:00 +15°C° 0 mm 2 m/s 738 mmHg 91%
03:00 +15°C° 0 mm 2 m/s 738 mmHg 91%
04:00 +15°C° 0 mm 2 m/s 738 mmHg 91%
05:00 +14°C° 0 mm 3 m/s 738 mmHg 89%
06:00 +16°C° 0 mm 3 m/s 737 mmHg 86%
07:00 +16°C° 0 mm 3 m/s 737 mmHg 84%
08:00 +18°C° 0 mm 4 m/s 737 mmHg 79%
09:00 +19°C° 0 mm 5 m/s 737 mmHg 74%
10:00 +21°C° 0 mm 5 m/s 737 mmHg 69%
11:00 +22°C° 0 mm 6 m/s 736 mmHg 66%
12:00 +23°C° 0 mm 6 m/s 736 mmHg 63%
13:00 +24°C° 0 mm 6 m/s 736 mmHg 61%
14:00 +23°C° 0.2 mm 6 m/s 735 mmHg 63%
15:00 +22°C° 0.2 mm 5 m/s 734 mmHg 66%
16:00 +22°C° 0.2 mm 5 m/s 734 mmHg 68%
17:00 +21°C° 0.1 mm 5 m/s 734 mmHg 70%
18:00 +20°C° 0.1 mm 6 m/s 733 mmHg 72%
19:00 +19°C° 0.1 mm 6 m/s 733 mmHg 74%
20:00 +19°C° 0.4 mm 6 m/s 733 mmHg 77%
21:00 +17°C° 0.4 mm 5 m/s 733 mmHg 81%
22:00 +17°C° 0.4 mm 5 m/s 733 mmHg 84%
23:00 +17°C° 0 mm 5 m/s 733 mmHg 84%

26 Septembrie, Sâmbătă

Timp Temperatura Precipitaţii Vânt Presiune Umiditate
00:00 +17°C° 0 mm 5 m/s 733 mmHg 84%
01:00 +16°C° 0 mm 5 m/s 733 mmHg 83%
02:00 +16°C° 0 mm 5 m/s 732 mmHg 83%
03:00 +16°C° 0 mm 5 m/s 732 mmHg 83%
04:00 +17°C° 0 mm 4 m/s 732 mmHg 83%
05:00 +16°C° 0 mm 5 m/s 732 mmHg 82%
06:00 +16°C° 0 mm 5 m/s 732 mmHg 81%
07:00 +16°C° 0 mm 5 m/s 732 mmHg 80%
08:00 +16°C° 0 mm 5 m/s 732 mmHg 78%
09:00 +17°C° 0 mm 5 m/s 732 mmHg 76%
10:00 +19°C° 0 mm 5 m/s 733 mmHg 74%
11:00 +19°C° 0 mm 5 m/s 733 mmHg 72%
12:00 +20°C° 0 mm 4 m/s 733 mmHg 71%
13:00 +21°C° 0 mm 4 m/s 733 mmHg 69%
14:00 +21°C° 0 mm 3 m/s 733 mmHg 71%
15:00 +20°C° 0 mm 3 m/s 733 mmHg 73%
16:00 +20°C° 0 mm 2 m/s 732 mmHg 75%
17:00 +20°C° 0.2 mm 3 m/s 732 mmHg 75%
18:00 +19°C° 0.2 mm 4 m/s 732 mmHg 74%
19:00 +19°C° 0.2 mm 5 m/s 732 mmHg 74%
20:00 +19°C° 0.1 mm 5 m/s 732 mmHg 73%
21:00 +19°C° 0.1 mm 6 m/s 732 mmHg 73%
22:00 +19°C° 0.1 mm 6 m/s 732 mmHg 72%
23:00 +19°C° 0 mm 6 m/s 732 mmHg 72%
Arată mai mult